Location: Baumgarten
(49.0970°N, 12.7493°E)
Time: 19:05:44
(UTC+00:00)

Meteor 2-17 Rocket - Pass Details

Date: 05 July 2020
Orbit: 935 x 956 km, 82.5° (Epoch: 12 August)

Event Time Altitude Azimuth Distance (km) Brightness Sun altitude
Exits shadow 21:27:24 18° 178° (S) 2,141 5.7 -14.4°
Maximum altitude 21:32:03 73° 96° (E) 981 4.4 -14.7°
Drops below altitude 10° 21:38:06 10° 13° (NNE) 2,659 7.6 -15.1°
Sets 21:40:35 0° 12° (NNE) 3,607 8.5 -15.3°
